date,time,SUV Intensity [MED/Hr],UV Index,Daily total [MED],Since Last [MED]
05/12/2022,00:03:26,-0.001,0.0,0.0,0.0
05/12/2022,00:04:26,0.000,0.0,0.0,0.0
05/12/2022,00:05:26,0.000,0.0,0.0,0.0
05/12/2022,00:06:26,0.000,0.0,0.0,0.0
05/12/2022,00:07:26,0.000,0.0,0.0,0.0
05/12/2022,00:08:26,0.000,0.0,0.0,0.0
05/12/2022,00:09:26,0.000,0.0,0.0,0.0
05/12/2022,00:10:26,0.000,0.0,0.0,0.0
05/12/2022,00:11:26,0.000,0.0,0.0,0.0
05/12/2022,00:12:26,0.000,0.0,0.0,0.0
05/12/2022,00:13:26,0.000,0.0,0.0,0.0
05/12/2022,00:14:26,0.000,0.0,0.0,0.0
05/12/2022,00:15:26,-0.001,0.0,0.0,0.0
05/12/2022,00:16:26,0.000,0.0,0.0,0.0
05/12/2022,00:17:26,0.000,0.0,0.0,0.0
05/12/2022,00:18:26,-0.001,0.0,0.0,0.0
05/12/2022,00:19:26,0.000,0.0,0.0,0.0
05/12/2022,00:20:26,-0.000,0.0,0.0,0.0
05/12/2022,00:21:26,0.000,0.0,0.0,0.0
05/12/2022,00:22:26,0.000,0.0,0.0,0.0
05/12/2022,00:23:26,0.000,0.0,0.0,0.0
05/12/2022,00:24:26,-0.001,0.0,0.0,0.0
05/12/2022,00:25:26,0.000,0.0,0.0,0.0
05/12/2022,00:26:26,0.000,0.0,0.0,0.0
05/12/2022,00:27:26,0.000,0.0,0.0,0.0
05/12/2022,00:28:26,0.000,0.0,0.0,0.0
05/12/2022,00:29:26,-0.000,0.0,0.0,0.0
05/12/2022,00:30:26,-0.001,0.0,0.0,0.0
05/12/2022,00:31:26,0.000,0.0,0.0,0.0
05/12/2022,00:32:26,0.000,0.0,0.0,0.0
05/12/2022,00:33:26,0.000,0.0,0.0,0.0
05/12/2022,00:34:26,-0.000,0.0,0.0,0.0
05/12/2022,00:35:26,0.001,0.0,0.0,0.0
05/12/2022,00:36:27,0.000,0.0,0.0,0.0
05/12/2022,00:37:26,0.000,0.0,0.0,0.0
05/12/2022,00:38:26,0.000,0.0,0.0,0.0
05/12/2022,00:39:26,0.000,0.0,0.0,0.0
05/12/2022,00:40:26,0.000,0.0,0.0,0.0
05/12/2022,00:41:26,0.000,0.0,0.0,0.0
05/12/2022,00:42:26,0.000,0.0,0.0,0.0
05/12/2022,00:43:26,0.000,0.0,0.0,0.0
05/12/2022,00:44:26,0.000,0.0,0.0,0.0
05/12/2022,00:45:26,0.000,0.0,0.0,0.0
05/12/2022,00:46:26,0.000,0.0,0.0,0.0
05/12/2022,00:47:27,0.000,0.0,0.0,0.0
05/12/2022,00:48:26,0.000,0.0,0.0,0.0
05/12/2022,00:49:26,0.000,0.0,0.0,0.0
05/12/2022,00:50:26,-0.000,0.0,0.0,0.0
05/12/2022,00:51:26,0.000,0.0,0.0,0.0
05/12/2022,00:52:26,0.000,0.0,0.0,0.0
05/12/2022,00:53:26,0.000,0.0,0.0,0.0
05/12/2022,00:54:27,-0.001,0.0,0.0,0.0
05/12/2022,00:55:26,0.000,0.0,0.0,0.0
05/12/2022,00:56:26,0.000,0.0,0.0,0.0
05/12/2022,00:57:26,0.000,0.0,0.0,0.0
05/12/2022,00:58:26,0.001,0.0,0.0,0.0
05/12/2022,00:59:26,0.001,0.0,0.0,0.0
05/12/2022,01:00:26,-0.001,0.0,0.0,0.0
05/12/2022,01:01:26,0.000,0.0,0.0,0.0
05/12/2022,01:02:26,0.000,0.0,0.0,0.0
05/12/2022,01:03:26,0.000,0.0,0.0,0.0
05/12/2022,01:04:27,0.001,0.0,0.0,0.0
05/12/2022,01:05:27,0.000,0.0,0.0,0.0
05/12/2022,01:06:26,0.000,0.0,0.0,0.0
05/12/2022,01:07:26,0.000,0.0,0.0,0.0
05/12/2022,01:08:26,0.001,0.0,0.0,0.0
05/12/2022,01:09:26,0.000,0.0,0.0,0.0
05/12/2022,01:10:27,0.001,0.0,0.0,0.0
05/12/2022,01:11:26,0.000,0.0,0.0,0.0
05/12/2022,01:12:26,0.000,0.0,0.0,0.0
05/12/2022,01:13:26,-0.000,0.0,0.0,0.0
05/12/2022,01:14:26,-0.000,0.0,0.0,0.0
05/12/2022,01:15:26,-0.001,0.0,0.0,0.0
05/12/2022,01:16:26,0.000,0.0,0.0,0.0
05/12/2022,01:17:26,0.000,0.0,0.0,0.0
05/12/2022,01:18:26,-0.001,0.0,0.0,0.0
05/12/2022,01:19:27,0.001,0.0,0.0,0.0
05/12/2022,01:20:26,-0.001,0.0,0.0,0.0
05/12/2022,01:21:26,-0.000,0.0,0.0,0.0
05/12/2022,01:22:26,-0.000,0.0,0.0,0.0
05/12/2022,01:23:26,0.000,0.0,0.0,0.0
05/12/2022,01:24:27,-0.000,0.0,0.0,0.0
05/12/2022,01:25:26,-0.000,0.0,0.0,0.0
05/12/2022,01:26:26,-0.000,0.0,0.0,0.0
05/12/2022,01:27:26,0.000,0.0,0.0,0.0
05/12/2022,01:28:26,0.001,0.0,0.0,0.0
05/12/2022,01:29:27,0.001,0.0,0.0,0.0
05/12/2022,01:30:26,-0.000,0.0,0.0,0.0
05/12/2022,01:31:26,-0.000,0.0,0.0,0.0
05/12/2022,01:32:26,0.001,0.0,0.0,0.0
05/12/2022,01:33:27,-0.000,0.0,0.0,0.0
05/12/2022,01:34:26,-0.000,0.0,0.0,0.0
05/12/2022,01:35:26,-0.001,0.0,0.0,0.0
05/12/2022,01:36:27,-0.000,0.0,0.0,0.0
05/12/2022,01:37:26,0.000,0.0,0.0,0.0
05/12/2022,01:38:26,-0.001,0.0,0.0,0.0
05/12/2022,01:39:26,-0.000,0.0,0.0,0.0
05/12/2022,01:40:26,0.000,0.0,0.0,0.0
05/12/2022,01:41:26,-0.000,0.0,0.0,0.0
05/12/2022,01:42:27,0.000,0.0,0.0,0.0
05/12/2022,01:43:26,-0.000,0.0,0.0,0.0
05/12/2022,01:44:26,-0.000,0.0,0.0,0.0
05/12/2022,01:45:26,-0.000,0.0,0.0,0.0
05/12/2022,01:46:26,-0.001,0.0,0.0,0.0
05/12/2022,01:47:26,-0.000,0.0,0.0,0.0
05/12/2022,01:48:27,0.001,0.0,0.0,0.0
05/12/2022,01:49:26,-0.000,0.0,0.0,0.0
05/12/2022,01:50:26,-0.001,0.0,0.0,0.0
05/12/2022,01:51:26,-0.001,0.0,0.0,0.0
05/12/2022,01:52:26,0.000,0.0,0.0,0.0
05/12/2022,01:53:27,-0.000,0.0,0.0,0.0
05/12/2022,01:54:26,-0.000,0.0,0.0,0.0
05/12/2022,01:55:26,-0.000,0.0,0.0,0.0
05/12/2022,01:56:26,-0.001,0.0,0.0,0.0
05/12/2022,01:57:26,-0.000,0.0,0.0,0.0
05/12/2022,01:58:26,-0.000,0.0,0.0,0.0
05/12/2022,01:59:26,-0.001,0.0,0.0,0.0
05/12/2022,02:00:26,-0.001,0.0,0.0,0.0
05/12/2022,02:01:26,0.001,0.0,0.0,0.0
05/12/2022,02:02:26,0.001,0.0,0.0,0.0
05/12/2022,02:03:26,-0.000,0.0,0.0,0.0
05/12/2022,02:04:27,-0.001,0.0,0.0,0.0
05/12/2022,02:05:26,0.000,0.0,0.0,0.0
05/12/2022,02:06:26,-0.000,0.0,0.0,0.0
05/12/2022,02:07:26,-0.000,0.0,0.0,0.0
05/12/2022,02:08:26,-0.000,0.0,0.0,0.0
05/12/2022,02:09:27,-0.000,0.0,0.0,0.0
05/12/2022,02:10:26,-0.000,0.0,0.0,0.0
05/12/2022,02:11:26,-0.000,0.0,0.0,0.0
05/12/2022,02:12:26,-0.001,0.0,0.0,0.0
05/12/2022,02:13:26,-0.000,0.0,0.0,0.0
05/12/2022,02:14:26,-0.000,0.0,0.0,0.0
05/12/2022,02:15:26,-0.001,0.0,0.0,0.0
05/12/2022,02:16:25,-0.001,0.0,0.0,0.0
05/12/2022,02:17:48,0.000,0.0,0.0,0.0
05/12/2022,02:18:26,-0.000,0.0,0.0,0.0
05/12/2022,02:19:26,0.000,0.0,0.0,0.0
05/12/2022,02:20:26,-0.000,0.0,0.0,0.0
05/12/2022,02:21:26,0.000,0.0,0.0,0.0
05/12/2022,02:22:26,-0.001,0.0,0.0,0.0
05/12/2022,02:23:26,-0.000,0.0,0.0,0.0
05/12/2022,02:24:26,-0.000,0.0,0.0,0.0
05/12/2022,02:25:26,0.000,0.0,0.0,0.0
05/12/2022,02:26:26,-0.000,0.0,0.0,0.0
05/12/2022,02:27:27,-0.000,0.0,0.0,0.0
05/12/2022,02:28:26,0.000,0.0,0.0,0.0
05/12/2022,02:29:27,-0.000,0.0,0.0,0.0
05/12/2022,02:30:26,-0.001,0.0,0.0,0.0
05/12/2022,02:31:26,-0.001,0.0,0.0,0.0
05/12/2022,02:32:26,0.000,0.0,0.0,0.0
05/12/2022,02:33:27,-0.000,0.0,0.0,0.0
05/12/2022,02:34:26,-0.001,0.0,0.0,0.0
05/12/2022,02:35:26,0.000,0.0,0.0,0.0
05/12/2022,02:36:27,-0.000,0.0,0.0,0.0
05/12/2022,02:37:26,-0.000,0.0,0.0,0.0
05/12/2022,02:38:26,-0.000,0.0,0.0,0.0
05/12/2022,02:39:26,0.000,0.0,0.0,0.0
05/12/2022,02:40:26,-0.000,0.0,0.0,0.0
05/12/2022,02:41:26,0.000,0.0,0.0,0.0
05/12/2022,02:42:26,-0.000,0.0,0.0,0.0
05/12/2022,02:43:27,-0.000,0.0,0.0,0.0
05/12/2022,02:44:26,0.000,0.0,0.0,0.0
05/12/2022,02:45:27,0.001,0.0,0.0,0.0
05/12/2022,02:46:26,-0.000,0.0,0.0,0.0
05/12/2022,02:47:26,-0.000,0.0,0.0,0.0
05/12/2022,02:48:26,-0.000,0.0,0.0,0.0
05/12/2022,02:49:26,0.001,0.0,0.0,0.0
05/12/2022,02:50:26,-0.001,0.0,0.0,0.0
05/12/2022,02:51:27,-0.001,0.0,0.0,0.0
05/12/2022,02:52:26,-0.000,0.0,0.0,0.0
05/12/2022,02:53:26,0.000,0.0,0.0,0.0
05/12/2022,02:54:27,-0.001,0.0,0.0,0.0
05/12/2022,02:55:26,0.000,0.0,0.0,0.0
05/12/2022,02:56:26,-0.000,0.0,0.0,0.0
05/12/2022,02:57:26,-0.000,0.0,0.0,0.0
05/12/2022,02:58:26,-0.000,0.0,0.0,0.0
05/12/2022,02:59:26,-0.001,0.0,0.0,0.0
05/12/2022,03:00:26,-0.000,0.0,0.0,0.0
05/12/2022,03:01:26,0.000,0.0,0.0,0.0
05/12/2022,03:02:26,-0.000,0.0,0.0,0.0
05/12/2022,03:03:28,-0.000,0.0,0.0,0.0
05/12/2022,03:04:27,-0.000,0.0,0.0,0.0
05/12/2022,03:05:26,-0.001,0.0,0.0,0.0
05/12/2022,03:06:25,-0.000,0.0,0.0,0.0
05/12/2022,03:07:48,-0.001,0.0,0.0,0.0
05/12/2022,03:08:26,0.001,0.0,0.0,0.0
05/12/2022,03:09:26,-0.001,0.0,0.0,0.0
05/12/2022,03:10:27,-0.001,0.0,0.0,0.0
05/12/2022,03:11:26,-0.000,0.0,0.0,0.0
05/12/2022,03:12:26,-0.000,0.0,0.0,0.0
05/12/2022,03:13:26,0.001,0.0,0.0,0.0
05/12/2022,03:14:26,-0.000,0.0,0.0,0.0
05/12/2022,03:15:27,0.000,0.0,0.0,0.0
05/12/2022,03:16:26,-0.000,0.0,0.0,0.0
05/12/2022,03:17:26,-0.000,0.0,0.0,0.0
05/12/2022,03:18:27,-0.001,0.0,0.0,0.0
05/12/2022,03:19:26,-0.000,0.0,0.0,0.0
05/12/2022,03:20:27,-0.000,0.0,0.0,0.0
05/12/2022,03:21:26,-0.000,0.0,0.0,0.0
05/12/2022,03:22:26,-0.001,0.0,0.0,0.0
05/12/2022,03:23:26,-0.001,0.0,0.0,0.0
05/12/2022,03:24:26,0.001,0.0,0.0,0.0
05/12/2022,03:25:27,-0.000,0.0,0.0,0.0
05/12/2022,03:26:26,-0.000,0.0,0.0,0.0
05/12/2022,03:27:26,-0.000,0.0,0.0,0.0
05/12/2022,03:28:26,-0.000,0.0,0.0,0.0
05/12/2022,03:29:26,-0.000,0.0,0.0,0.0
05/12/2022,03:30:29,-0.001,0.0,0.0,0.0
05/12/2022,03:31:26,-0.000,0.0,0.0,0.0
05/12/2022,03:32:26,-0.000,0.0,0.0,0.0
05/12/2022,03:33:27,-0.001,0.0,0.0,0.0
05/12/2022,03:34:27,-0.000,0.0,0.0,0.0
05/12/2022,03:35:27,-0.000,0.0,0.0,0.0
05/12/2022,03:36:26,-0.000,0.0,0.0,0.0
05/12/2022,03:37:26,0.000,0.0,0.0,0.0
05/12/2022,03:38:26,-0.000,0.0,0.0,0.0
05/12/2022,03:39:26,-0.000,0.0,0.0,0.0
05/12/2022,03:40:26,-0.000,0.0,0.0,0.0
05/12/2022,03:41:26,-0.000,0.0,0.0,0.0
05/12/2022,03:42:26,-0.001,0.0,0.0,0.0
05/12/2022,03:43:26,0.001,0.0,0.0,0.0
05/12/2022,03:44:26,-0.000,0.0,0.0,0.0
05/12/2022,03:45:26,-0.000,0.0,0.0,0.0
05/12/2022,03:46:27,-0.001,0.0,0.0,0.0
05/12/2022,03:47:26,0.001,0.0,0.0,0.0
05/12/2022,03:48:27,-0.000,0.0,0.0,0.0
05/12/2022,03:49:26,-0.000,0.0,0.0,0.0
05/12/2022,03:50:27,-0.000,0.0,0.0,0.0
05/12/2022,03:51:26,-0.001,0.0,0.0,0.0
05/12/2022,03:52:26,-0.000,0.0,0.0,0.0
05/12/2022,03:53:27,-0.000,0.0,0.0,0.0
05/12/2022,03:54:26,-0.001,0.0,0.0,0.0
05/12/2022,03:55:26,-0.001,0.0,0.0,0.0
05/12/2022,03:56:27,0.001,0.0,0.0,0.0
05/12/2022,03:57:27,-0.000,0.0,0.0,0.0
05/12/2022,03:58:27,-0.000,0.0,0.0,0.0
05/12/2022,03:59:26,-0.000,0.0,0.0,0.0
05/12/2022,04:00:27,-0.001,0.0,0.0,0.0
05/12/2022,04:01:26,-0.000,0.0,0.0,0.0
05/12/2022,04:02:26,-0.000,0.0,0.0,0.0
05/12/2022,04:03:26,-0.001,0.0,0.0,0.0
05/12/2022,04:04:27,-0.000,0.0,0.0,0.0
05/12/2022,04:05:26,-0.000,0.0,0.0,0.0
05/12/2022,04:06:27,-0.000,0.0,0.0,0.0
05/12/2022,04:07:28,-0.001,0.0,0.0,0.0
05/12/2022,04:08:26,-0.000,0.0,0.0,0.0
05/12/2022,04:09:27,0.000,0.0,0.0,0.0
05/12/2022,04:10:26,-0.000,0.0,0.0,0.0
05/12/2022,04:11:26,-0.000,0.0,0.0,0.0
05/12/2022,04:12:26,-0.000,0.0,0.0,0.0
05/12/2022,04:13:27,-0.001,0.0,0.0,0.0
05/12/2022,04:14:27,-0.001,0.0,0.0,0.0
05/12/2022,04:15:27,-0.000,0.0,0.0,0.0
05/12/2022,04:16:26,-0.000,0.0,0.0,0.0
05/12/2022,04:17:26,-0.000,0.0,0.0,0.0
05/12/2022,04:18:26,-0.001,0.0,0.0,0.0
05/12/2022,04:19:27,-0.000,0.0,0.0,0.0
05/12/2022,04:20:26,-0.001,0.0,0.0,0.0
05/12/2022,04:21:27,-0.000,0.0,0.0,0.0
05/12/2022,04:22:26,-0.001,0.0,0.0,0.0
05/12/2022,04:23:28,-0.000,0.0,0.0,0.0
05/12/2022,04:24:27,-0.000,0.0,0.0,0.0
05/12/2022,04:25:27,-0.001,0.0,0.0,0.0
05/12/2022,04:26:27,-0.000,0.0,0.0,0.0
05/12/2022,04:27:27,-0.000,0.0,0.0,0.0
05/12/2022,04:28:27,-0.001,0.0,0.0,0.0
05/12/2022,04:29:26,-0.000,0.0,0.0,0.0
05/12/2022,04:30:26,-0.000,0.0,0.0,0.0
05/12/2022,04:31:26,-0.001,0.0,0.0,0.0
05/12/2022,04:32:26,0.000,0.0,0.0,0.0
05/12/2022,04:33:26,-0.000,0.0,0.0,0.0
05/12/2022,04:34:27,-0.001,0.0,0.0,0.0
05/12/2022,04:35:26,0.000,0.0,0.0,0.0
05/12/2022,04:36:26,-0.000,0.0,0.0,0.0
05/12/2022,04:37:27,-0.001,0.0,0.0,0.0
05/12/2022,04:38:26,-0.000,0.0,0.0,0.0
05/12/2022,04:39:27,-0.000,0.0,0.0,0.0
05/12/2022,04:40:26,0.000,0.0,0.0,0.0
05/12/2022,04:41:27,-0.000,0.0,0.0,0.0
05/12/2022,04:42:26,-0.000,0.0,0.0,0.0
05/12/2022,04:43:26,-0.001,0.0,0.0,0.0
05/12/2022,04:44:26,-0.000,0.0,0.0,0.0
05/12/2022,04:45:26,-0.001,0.0,0.0,0.0
05/12/2022,04:46:27,-0.000,0.0,0.0,0.0
05/12/2022,04:47:27,-0.000,0.0,0.0,0.0
05/12/2022,04:48:27,-0.001,0.0,0.0,0.0
05/12/2022,04:49:27,-0.000,0.0,0.0,0.0
05/12/2022,04:50:27,-0.001,0.0,0.0,0.0
05/12/2022,04:51:26,-0.000,0.0,0.0,0.0
05/12/2022,04:52:27,-0.000,0.0,0.0,0.0
05/12/2022,04:53:27,-0.001,0.0,0.0,0.0
05/12/2022,04:54:26,0.000,0.0,0.0,0.0
05/12/2022,04:55:27,-0.000,0.0,0.0,0.0
05/12/2022,04:56:26,-0.000,0.0,0.0,0.0
05/12/2022,04:57:26,-0.000,0.0,0.0,0.0
05/12/2022,04:58:26,-0.000,0.0,0.0,0.0
05/12/2022,04:59:26,0.000,0.0,0.0,0.0
05/12/2022,05:00:27,-0.000,0.0,0.0,0.0
05/12/2022,05:01:26,-0.001,0.0,0.0,0.0
05/12/2022,05:02:27,-0.001,0.0,0.0,0.0
05/12/2022,05:03:26,-0.000,0.0,0.0,0.0
05/12/2022,05:04:27,-0.000,0.0,0.0,0.0
05/12/2022,05:05:26,-0.000,0.0,0.0,0.0
05/12/2022,05:06:27,-0.001,0.0,0.0,0.0
05/12/2022,05:07:28,-0.000,0.0,0.0,0.0
05/12/2022,05:08:27,-0.000,0.0,0.0,0.0
05/12/2022,05:09:26,-0.001,0.0,0.0,0.0
05/12/2022,05:10:27,-0.000,0.0,0.0,0.0
05/12/2022,05:11:27,-0.000,0.0,0.0,0.0
05/12/2022,05:12:27,-0.000,0.0,0.0,0.0
05/12/2022,05:13:26,-0.000,0.0,0.0,0.0
05/12/2022,05:14:27,-0.001,0.0,0.0,0.0
05/12/2022,05:15:26,-0.000,0.0,0.0,0.0
05/12/2022,05:16:26,-0.000,0.0,0.0,0.0
05/12/2022,05:17:27,-0.000,0.0,0.0,0.0
05/12/2022,05:18:27,-0.001,0.0,0.0,0.0
05/12/2022,05:19:27,-0.000,0.0,0.0,0.0
05/12/2022,05:20:27,-0.000,0.0,0.0,0.0
05/12/2022,05:21:27,-0.001,0.0,0.0,0.0
05/12/2022,05:22:26,-0.000,0.0,0.0,0.0
05/12/2022,05:23:26,-0.001,0.0,0.0,0.0
05/12/2022,05:24:27,-0.000,0.0,0.0,0.0
05/12/2022,05:25:27,-0.001,0.0,0.0,0.0
05/12/2022,05:26:27,-0.001,0.0,0.0,0.0
05/12/2022,05:27:26,-0.001,0.0,0.0,0.0
05/12/2022,05:28:26,-0.001,0.0,0.0,0.0
05/12/2022,05:29:27,-0.000,0.0,0.0,0.0
05/12/2022,05:30:26,-0.000,0.0,0.0,0.0
05/12/2022,05:31:27,-0.001,0.0,0.0,0.0
05/12/2022,05:32:27,0.000,0.0,0.0,0.0
05/12/2022,05:33:27,-0.001,0.0,0.0,0.0
05/12/2022,05:34:26,-0.000,0.0,0.0,0.0
05/12/2022,05:35:26,0.000,0.0,0.0,0.0
05/12/2022,05:36:27,-0.001,0.0,0.0,0.0
05/12/2022,05:37:27,-0.000,0.0,0.0,0.0
05/12/2022,05:38:56,-0.001,0.0,0.0,0.0
05/12/2022,05:40:27,-0.000,0.0,0.0,0.0
05/12/2022,05:41:26,-0.000,0.0,0.0,0.0
05/12/2022,05:42:26,-0.001,0.0,0.0,0.0
05/12/2022,05:43:27,-0.001,0.0,0.0,0.0
05/12/2022,05:44:27,-0.001,0.0,0.0,0.0
05/12/2022,05:45:27,-0.001,0.0,0.0,0.0
05/12/2022,05:46:26,-0.001,0.0,0.0,0.0
05/12/2022,05:47:26,-0.000,0.0,0.0,0.0
05/12/2022,05:48:27,-0.000,0.0,0.0,0.0
05/12/2022,05:49:27,-0.001,0.0,0.0,0.0
05/12/2022,05:50:27,-0.000,0.0,0.0,0.0
05/12/2022,05:51:26,-0.001,0.0,0.0,0.0
05/12/2022,05:52:26,-0.000,0.0,0.0,0.0
05/12/2022,05:53:27,-0.000,0.0,0.0,0.0
05/12/2022,05:54:26,-0.000,0.0,0.0,0.0
05/12/2022,05:55:26,-0.000,0.0,0.0,0.0
05/12/2022,05:56:27,-0.000,0.0,0.0,0.0
05/12/2022,05:57:27,-0.001,0.0,0.0,0.0
05/12/2022,05:58:27,0.001,0.0,0.0,0.0
05/12/2022,05:59:27,-0.000,0.0,0.0,0.0
05/12/2022,06:00:26,-0.000,0.0,0.0,0.0
05/12/2022,06:01:26,-0.000,0.0,0.0,0.0
05/12/2022,06:02:27,-0.000,0.0,0.0,0.0
05/12/2022,06:03:26,-0.000,0.0,0.0,0.0
05/12/2022,06:04:27,-0.000,0.0,0.0,0.0
05/12/2022,06:05:26,-0.000,0.0,0.0,0.0
05/12/2022,06:06:26,-0.000,0.0,0.0,0.0
05/12/2022,06:07:27,-0.000,0.0,0.0,0.0
05/12/2022,06:08:27,-0.000,0.0,0.0,0.0
05/12/2022,06:09:27,-0.000,0.0,0.0,0.0
05/12/2022,06:10:26,-0.001,0.0,0.0,0.0
05/12/2022,06:11:27,0.001,0.0,0.0,0.0
05/12/2022,06:12:27,-0.001,0.0,0.0,0.0
05/12/2022,06:13:27,-0.000,0.0,0.0,0.0
05/12/2022,06:14:27,-0.001,0.0,0.0,0.0
05/12/2022,06:15:27,-0.000,0.0,0.0,0.0
05/12/2022,06:16:27,-0.001,0.0,0.0,0.0
05/12/2022,06:17:26,-0.000,0.0,0.0,0.0
05/12/2022,06:18:26,-0.000,0.0,0.0,0.0
05/12/2022,06:19:27,-0.001,0.0,0.0,0.0
05/12/2022,06:20:27,-0.000,0.0,0.0,0.0
05/12/2022,06:21:27,-0.000,0.0,0.0,0.0
05/12/2022,06:22:26,0.000,0.0,0.0,0.0
05/12/2022,06:23:26,-0.000,0.0,0.0,0.0
05/12/2022,06:24:27,-0.000,0.0,0.0,0.0
05/12/2022,06:25:27,-0.000,0.0,0.0,0.0
05/12/2022,06:26:27,-0.000,0.0,0.0,0.0
05/12/2022,06:27:27,-0.001,0.0,0.0,0.0
05/12/2022,06:28:27,-0.000,0.0,0.0,0.0
05/12/2022,06:29:27,-0.000,0.0,0.0,0.0
05/12/2022,06:30:27,-0.000,0.0,0.0,0.0
05/12/2022,06:31:27,0.000,0.0,0.0,0.0
05/12/2022,06:32:26,-0.000,0.0,0.0,0.0
05/12/2022,06:33:26,-0.000,0.0,0.0,0.0
05/12/2022,06:34:25,-0.000,0.0,0.0,0.0
05/12/2022,06:35:27,-0.000,0.0,0.0,0.0
05/12/2022,06:36:27,-0.000,0.0,0.0,0.0
05/12/2022,06:37:27,-0.000,0.0,0.0,0.0
05/12/2022,06:38:27,0.001,0.0,0.0,0.0
05/12/2022,06:39:27,-0.000,0.0,0.0,0.0
05/12/2022,06:40:26,-0.001,0.0,0.0,0.0
05/12/2022,06:41:26,-0.000,0.0,0.0,0.0
05/12/2022,06:42:27,-0.000,0.0,0.0,0.0
05/12/2022,06:43:26,-0.000,0.0,0.0,0.0
05/12/2022,06:44:26,-0.000,0.0,0.0,0.0
05/12/2022,06:45:27,-0.001,0.0,0.0,0.0
05/12/2022,06:46:27,-0.001,0.0,0.0,0.0
05/12/2022,06:47:27,-0.001,0.0,0.0,0.0
05/12/2022,06:48:26,0.000,0.0,0.0,0.0
05/12/2022,06:49:26,-0.000,0.0,0.0,0.0
05/12/2022,06:50:27,-0.000,0.0,0.0,0.0
05/12/2022,06:51:27,-0.000,0.0,0.0,0.0
05/12/2022,06:52:27,-0.000,0.0,0.0,0.0
05/12/2022,06:53:27,-0.000,0.0,0.0,0.0
05/12/2022,06:54:27,-0.000,0.0,0.0,0.0
05/12/2022,06:55:27,-0.001,0.0,0.0,0.0
05/12/2022,06:56:27,-0.001,0.0,0.0,0.0
05/12/2022,06:57:26,-0.000,0.0,0.0,0.0
05/12/2022,06:58:27,-0.000,0.0,0.0,0.0
05/12/2022,06:59:27,-0.000,0.0,0.0,0.0
05/12/2022,07:00:27,-0.000,0.0,0.0,0.0
05/12/2022,07:01:27,-0.000,0.0,0.0,0.0
05/12/2022,07:02:27,0.000,0.0,0.0,0.0
05/12/2022,07:03:27,-0.000,0.0,0.0,0.0
05/12/2022,07:04:26,-0.001,0.0,0.0,0.0
05/12/2022,07:05:27,-0.001,0.0,0.0,0.0
05/12/2022,07:06:26,-0.001,0.0,0.0,0.0
05/12/2022,07:07:27,-0.000,0.0,0.0,0.0
05/12/2022,07:08:26,-0.000,0.0,0.0,0.0
05/12/2022,07:09:26,-0.000,0.0,0.0,0.0
05/12/2022,07:10:26,-0.001,0.0,0.0,0.0
05/12/2022,07:11:49,-0.000,0.0,0.0,0.0
05/12/2022,07:12:27,-0.000,0.0,0.0,0.0
05/12/2022,07:13:28,-0.000,0.0,0.0,0.0
05/12/2022,07:14:27,-0.000,0.0,0.0,0.0
05/12/2022,07:15:27,0.001,0.0,0.0,0.0
05/12/2022,07:16:27,-0.001,0.0,0.0,0.0
05/12/2022,07:17:27,-0.000,0.0,0.0,0.0
05/12/2022,07:18:27,-0.000,0.0,0.0,0.0
05/12/2022,07:19:26,-0.000,0.0,0.0,0.0
05/12/2022,07:20:27,-0.001,0.0,0.0,0.0
05/12/2022,07:21:27,-0.000,0.0,0.0,0.0
05/12/2022,07:22:27,-0.000,0.0,0.0,0.0
05/12/2022,07:23:26,0.000,0.0,0.0,0.0
05/12/2022,07:24:27,-0.001,0.0,0.0,0.0
05/12/2022,07:25:26,-0.000,0.0,0.0,0.0
05/12/2022,07:26:26,-0.001,0.0,0.0,0.0
05/12/2022,07:27:27,-0.000,0.0,0.0,0.0
05/12/2022,07:28:27,-0.000,0.0,0.0,0.0
05/12/2022,07:29:27,-0.001,0.0,0.0,0.0
05/12/2022,07:30:27,-0.000,0.0,0.0,0.0
05/12/2022,07:31:27,-0.001,0.0,0.0,0.0
05/12/2022,07:32:27,-0.000,0.0,0.0,0.0
05/12/2022,07:33:27,-0.000,0.0,0.0,0.0
05/12/2022,07:34:27,-0.000,0.0,0.0,0.0
05/12/2022,07:35:27,-0.000,0.0,0.0,0.0
05/12/2022,07:36:27,-0.001,0.0,0.0,0.0
05/12/2022,07:37:26,-0.000,0.0,0.0,0.0
05/12/2022,07:38:26,-0.001,0.0,0.0,0.0
05/12/2022,07:39:27,-0.001,0.0,0.0,0.0
05/12/2022,07:40:27,-0.000,0.0,0.0,0.0
05/12/2022,07:41:26,-0.000,0.0,0.0,0.0
05/12/2022,07:42:27,-0.000,0.0,0.0,0.0
05/12/2022,07:43:27,-0.000,0.0,0.0,0.0
05/12/2022,07:44:27,-0.000,0.0,0.0,0.0
05/12/2022,07:45:26,-0.000,0.0,0.0,0.0
05/12/2022,07:46:27,0.000,0.0,0.0,0.0
05/12/2022,07:47:27,0.000,0.0,0.0,0.0
05/12/2022,07:48:27,0.000,0.0,0.0,0.0
05/12/2022,07:49:27,0.000,0.0,0.0,0.0
05/12/2022,07:50:27,0.000,0.0,0.0,0.0
05/12/2022,07:51:27,0.000,0.0,0.0,0.0
05/12/2022,07:52:27,0.001,0.0,0.0,0.0
05/12/2022,07:53:27,0.001,0.0,0.0,0.0
05/12/2022,07:54:26,0.002,0.0,0.0,0.0
05/12/2022,07:55:27,0.000,0.0,0.0,0.0
05/12/2022,07:56:26,0.001,0.0,0.0,0.0
05/12/2022,07:57:27,0.001,0.0,0.0,0.0
05/12/2022,07:58:27,0.000,0.0,0.0,0.0
05/12/2022,07:59:27,0.002,0.0,0.0,0.0
05/12/2022,08:00:27,0.001,0.0,0.0,0.0
05/12/2022,08:01:26,0.001,0.0,0.0,0.0
05/12/2022,08:02:27,0.001,0.0,0.0,0.0
05/12/2022,08:03:27,0.001,0.0,0.0,0.0
05/12/2022,08:04:27,0.001,0.0,0.0,0.0
05/12/2022,08:05:27,0.001,0.0,0.0,0.0
05/12/2022,08:06:27,0.001,0.0,0.0,0.0
05/12/2022,08:07:26,0.000,0.0,0.0,0.0
05/12/2022,08:08:27,0.002,0.0,0.0,0.0
05/12/2022,08:09:27,0.002,0.0,0.0,0.0
05/12/2022,08:10:27,0.002,0.0,0.0,0.0
05/12/2022,08:11:27,0.002,0.0,0.0,0.0
05/12/2022,08:12:27,0.002,0.0,0.0,0.0
05/12/2022,08:13:27,0.003,0.0,0.0,0.0
05/12/2022,08:14:26,0.003,0.0,0.0,0.0
05/12/2022,08:15:27,0.002,0.0,0.0,0.0
05/12/2022,08:16:27,0.003,0.0,0.0,0.0
05/12/2022,08:17:27,0.002,0.0,0.0,0.0
05/12/2022,08:18:27,0.003,0.0,0.0,0.0
05/12/2022,08:19:27,0.004,0.0,0.0,0.0
05/12/2022,08:20:27,0.004,0.0,0.0,0.0
05/12/2022,08:21:27,0.004,0.0,0.0,0.0
05/12/2022,08:22:27,0.005,0.0,0.0,0.0
05/12/2022,08:23:27,0.004,0.0,0.0,0.0
05/12/2022,08:24:27,0.003,0.0,0.0,0.0
05/12/2022,08:25:27,0.005,0.0,0.0,0.0
05/12/2022,08:26:27,0.004,0.0,0.0,0.0
05/12/2022,08:27:27,0.004,0.0,0.0,0.0
05/12/2022,08:28:27,0.005,0.0,0.0,0.0
05/12/2022,08:29:26,0.005,0.0,0.0,0.0
05/12/2022,08:30:27,0.004,0.0,0.0,0.0
05/12/2022,08:31:27,0.005,0.0,0.0,0.0
05/12/2022,08:32:27,0.003,0.0,0.0,0.0
05/12/2022,08:33:27,0.004,0.0,0.0,0.0
05/12/2022,08:34:26,0.004,0.0,0.0,0.0
05/12/2022,08:35:26,0.004,0.0,0.0,0.0
05/12/2022,08:36:27,0.005,0.0,0.0,0.0
05/12/2022,08:37:27,0.006,0.0,0.0,0.0
05/12/2022,08:38:27,0.005,0.0,0.0,0.0
05/12/2022,08:39:27,0.005,0.0,0.0,0.0
05/12/2022,08:40:27,0.005,0.0,0.0,0.0
05/12/2022,08:41:27,0.005,0.0,0.0,0.0
05/12/2022,08:42:27,0.005,0.0,0.0,0.0
05/12/2022,08:43:27,0.005,0.0,0.0,0.0
05/12/2022,08:44:27,0.006,0.0,0.0,0.0
05/12/2022,08:45:27,0.007,0.0,0.0,0.0
05/12/2022,08:46:27,0.006,0.0,0.0,0.0
05/12/2022,08:47:27,0.005,0.0,0.0,0.0
05/12/2022,08:48:27,0.005,0.0,0.0,0.0
05/12/2022,08:49:27,0.007,0.0,0.0,0.0
05/12/2022,08:50:27,0.007,0.0,0.0,0.0
05/12/2022,08:51:27,0.008,0.0,0.0,0.0
05/12/2022,08:52:27,0.007,0.0,0.001,0.001
05/12/2022,08:53:27,0.008,0.0,0.001,0.0
05/12/2022,08:54:27,0.008,0.0,0.001,0.0
05/12/2022,08:55:27,0.009,0.0,0.001,0.0
05/12/2022,08:56:27,0.009,0.0,0.001,0.0
05/12/2022,08:57:27,0.008,0.0,0.001,0.0
05/12/2022,08:58:27,0.007,0.0,0.001,0.0
05/12/2022,08:59:27,0.008,0.0,0.002,0.001
05/12/2022,09:00:27,0.008,0.0,0.002,0.0
05/12/2022,09:01:28,0.007,0.0,0.002,0.0
05/12/2022,09:02:27,0.008,0.0,0.002,0.0
05/12/2022,09:03:27,0.006,0.0,0.002,0.0
05/12/2022,09:04:27,0.007,0.0,0.002,0.0
05/12/2022,09:05:27,0.007,0.0,0.002,0.0
05/12/2022,09:06:27,0.007,0.0,0.002,0.0
05/12/2022,09:07:27,0.010,0.0,0.002,0.0
05/12/2022,09:08:27,0.009,0.0,0.003,0.001
05/12/2022,09:09:27,0.009,0.0,0.003,0.0
05/12/2022,09:10:27,0.009,0.0,0.003,0.0
05/12/2022,09:11:27,0.008,0.0,0.003,0.0
05/12/2022,09:12:27,0.009,0.0,0.003,0.0
05/12/2022,09:13:27,0.009,0.0,0.003,0.0
05/12/2022,09:14:27,0.008,0.0,0.003,0.0
05/12/2022,09:15:28,0.007,0.0,0.004,0.001
05/12/2022,09:16:27,0.006,0.0,0.004,0.0
05/12/2022,09:17:27,0.006,0.0,0.004,0.0
05/12/2022,09:18:27,0.006,0.0,0.004,0.0
05/12/2022,09:19:27,0.007,0.0,0.004,0.0
05/12/2022,09:20:27,0.010,0.0,0.004,0.0
05/12/2022,09:21:27,0.011,0.0,0.004,0.0
05/12/2022,09:22:27,0.011,0.0,0.005,0.001
05/12/2022,09:23:27,0.009,0.0,0.005,0.0
05/12/2022,09:24:27,0.008,0.0,0.005,0.0
05/12/2022,09:25:27,0.008,0.0,0.005,0.0
05/12/2022,09:26:27,0.009,0.0,0.005,0.0
05/12/2022,09:27:26,0.010,0.0,0.005,0.0
05/12/2022,09:28:27,0.011,0.0,0.005,0.0
05/12/2022,09:29:27,0.013,0.0,0.006,0.001
05/12/2022,09:30:27,0.014,0.0,0.006,0.0
05/12/2022,09:31:27,0.012,0.0,0.006,0.0
05/12/2022,09:32:27,0.011,0.0,0.006,0.0
05/12/2022,09:33:27,0.010,0.0,0.006,0.0
05/12/2022,09:34:27,0.009,0.0,0.007,0.001
05/12/2022,09:35:27,0.010,0.0,0.007,0.0
05/12/2022,09:36:27,0.011,0.0,0.007,0.0
05/12/2022,09:37:27,0.012,0.0,0.007,0.0
05/12/2022,09:38:27,0.013,0.0,0.007,0.0
05/12/2022,09:39:27,0.015,0.0,0.008,0.001
05/12/2022,09:40:27,0.014,0.0,0.008,0.0
05/12/2022,09:41:27,0.015,0.0,0.008,0.0
05/12/2022,09:42:27,0.017,0.0,0.008,0.0
05/12/2022,09:43:27,0.020,0.0,0.009,0.001
05/12/2022,09:44:27,0.022,0.0,0.009,0.0
05/12/2022,09:45:27,0.022,0.0,0.009,0.0
05/12/2022,09:46:27,0.020,0.0,0.01,0.001
05/12/2022,09:47:27,0.020,0.0,0.01,0.0
05/12/2022,09:48:27,0.022,0.0,0.01,0.0
05/12/2022,09:49:27,0.024,0.0,0.011,0.001
05/12/2022,09:50:27,0.023,0.0,0.011,0.0
05/12/2022,09:51:27,0.021,0.0,0.012,0.001
05/12/2022,09:52:27,0.021,0.0,0.012,0.0
05/12/2022,09:53:27,0.019,0.0,0.012,0.0
05/12/2022,09:54:27,0.020,0.0,0.013,0.001
05/12/2022,09:55:27,0.022,0.0,0.013,0.0
05/12/2022,09:56:27,0.026,0.0,0.013,0.0
05/12/2022,09:57:27,0.025,0.0,0.014,0.001
05/12/2022,09:58:27,0.024,0.0,0.014,0.0
05/12/2022,09:59:27,0.024,0.0,0.015,0.001
05/12/2022,10:00:27,0.022,0.0,0.015,0.0
05/12/2022,10:01:27,0.026,0.0,0.015,0.0
05/12/2022,10:02:27,0.026,0.0,0.016,0.001
05/12/2022,10:03:27,0.029,0.0,0.016,0.0
05/12/2022,10:04:27,0.034,0.0,0.017,0.001
05/12/2022,10:05:27,0.040,0.0,0.018,0.001
05/12/2022,10:06:27,0.041,0.0,0.018,0.0
05/12/2022,10:07:27,0.042,0.0,0.019,0.001
05/12/2022,10:08:27,0.044,0.0,0.02,0.001
05/12/2022,10:09:27,0.044,0.0,0.02,0.0
05/12/2022,10:10:26,0.046,0.0,0.021,0.001
05/12/2022,10:11:49,0.050,0.0,0.022,0.001
05/12/2022,10:12:27,0.051,0.0,0.023,0.001
05/12/2022,10:13:27,0.048,0.0,0.024,0.001
05/12/2022,10:14:27,0.049,0.0,0.024,0.0
05/12/2022,10:15:27,0.053,0.0,0.025,0.001
05/12/2022,10:16:27,0.054,0.0,0.026,0.001
05/12/2022,10:17:27,0.059,0.0,0.027,0.001